Météo par heure à Judasze

Ce jour, 20 Juin, Dimanche

Heure Température Précipitation Vent Pression Humidité
00:00 +18°C° 0 mm 2 m/s 741 mmHg 93%
01:00 +18°C° 0 mm 2 m/s 741 mmHg 94%
02:00 +17°C° 0 mm 2 m/s 741 mmHg 94%
03:00 +17°C° 0 mm 2 m/s 741 mmHg 94%
04:00 +17°C° 0 mm 2 m/s 740 mmHg 94%
05:00 +18°C° 0 mm 3 m/s 740 mmHg 87%
06:00 +19°C° 0 mm 4 m/s 740 mmHg 81%
07:00 +21°C° 0 mm 5 m/s 740 mmHg 74%
08:00 +22°C° 0 mm 4 m/s 740 mmHg 69%
09:00 +25°C° 0 mm 4 m/s 740 mmHg 64%
10:00 +26°C° 0 mm 4 m/s 741 mmHg 59%
11:00 +27°C° 0 mm 4 m/s 740 mmHg 56%
12:00 +28°C° 0 mm 4 m/s 740 mmHg 54%
13:00 +29°C° 0 mm 4 m/s 740 mmHg 51%
14:00 +29°C° 0 mm 4 m/s 739 mmHg 51%
15:00 +29°C° 0 mm 4 m/s 739 mmHg 51%
16:00 +29°C° 0 mm 4 m/s 739 mmHg 51%
17:00 +28°C° 0 mm 3 m/s 739 mmHg 59%
18:00 +26°C° 0 mm 3 m/s 738 mmHg 66%
19:00 +25°C° 0 mm 2 m/s 738 mmHg 73%
20:00 +23°C° 0 mm 2 m/s 738 mmHg 79%
21:00 +21°C° 0 mm 2 m/s 738 mmHg 84%
22:00 +20°C° 0 mm 2 m/s 738 mmHg 90%
23:00 +19°C° 0 mm 2 m/s 738 mmHg 91%

Demain, 21 Juin, Lundi

Heure Température Précipitation Vent Pression Humidité
00:00 +19°C° 0 mm 2 m/s 738 mmHg 92%
01:00 +18°C° 0 mm 2 m/s 737 mmHg 94%
02:00 +18°C° 0 mm 2 m/s 737 mmHg 94%
03:00 +18°C° 0 mm 2 m/s 737 mmHg 95%
04:00 +18°C° 0 mm 3 m/s 737 mmHg 96%
05:00 +19°C° 0 mm 3 m/s 737 mmHg 90%
06:00 +21°C° 0 mm 4 m/s 737 mmHg 84%
07:00 +22°C° 0 mm 4 m/s 737 mmHg 79%
08:00 +25°C° 0 mm 4 m/s 737 mmHg 73%
09:00 +26°C° 0 mm 4 m/s 737 mmHg 67%
10:00 +28°C° 0 mm 4 m/s 737 mmHg 61%
11:00 +28°C° 0 mm 3 m/s 737 mmHg 58%
12:00 +29°C° 0 mm 3 m/s 736 mmHg 55%
13:00 +30°C° 0 mm 2 m/s 736 mmHg 52%
14:00 +30°C° 0 mm 2 m/s 736 mmHg 51%
15:00 +30°C° 0 mm 3 m/s 736 mmHg 51%
16:00 +30°C° 0 mm 3 m/s 736 mmHg 50%
17:00 +29°C° 0 mm 2 m/s 736 mmHg 57%
18:00 +28°C° 0 mm 2 m/s 735 mmHg 65%
19:00 +26°C° 0 mm 2 m/s 735 mmHg 72%
20:00 +25°C° 0.1 mm 2 m/s 736 mmHg 77%
21:00 +24°C° 0.1 mm 2 m/s 736 mmHg 83%
22:00 +21°C° 0.1 mm 2 m/s 736 mmHg 88%
23:00 +21°C° 0.4 mm 2 m/s 736 mmHg 90%

Après-demain, 22 Juin, Mardi

Heure Température Précipitation Vent Pression Humidité
00:00 +20°C° 0.4 mm 3 m/s 736 mmHg 92%
01:00 +19°C° 0.4 mm 3 m/s 736 mmHg 94%
02:00 +19°C° 0.2 mm 3 m/s 736 mmHg 94%
03:00 +19°C° 0.2 mm 2 m/s 737 mmHg 95%
04:00 +20°C° 0.2 mm 1 m/s 737 mmHg 95%
05:00 +20°C° 0 mm 2 m/s 737 mmHg 91%
06:00 +21°C° 0 mm 2 m/s 737 mmHg 87%
07:00 +23°C° 0 mm 2 m/s 738 mmHg 83%
08:00 +25°C° 0 mm 2 m/s 738 mmHg 76%
09:00 +26°C° 0 mm 2 m/s 738 mmHg 70%
10:00 +27°C° 0 mm 2 m/s 738 mmHg 63%
11:00 +28°C° 0 mm 2 m/s 738 mmHg 60%
12:00 +29°C° 0 mm 2 m/s 738 mmHg 57%
13:00 +30°C° 0 mm 2 m/s 738 mmHg 54%
14:00 +30°C° 0 mm 2 m/s 738 mmHg 54%
15:00 +30°C° 0 mm 2 m/s 738 mmHg 55%
16:00 +30°C° 0 mm 2 m/s 739 mmHg 55%
17:00 +29°C° 0 mm 2 m/s 739 mmHg 61%
18:00 +27°C° 0 mm 2 m/s 739 mmHg 68%
19:00 +26°C° 0 mm 3 m/s 739 mmHg 75%
20:00 +25°C° 0.1 mm 3 m/s 739 mmHg 79%
21:00 +24°C° 0.1 mm 2 m/s 739 mmHg 82%
22:00 +21°C° 0.1 mm 2 m/s 739 mmHg 86%
23:00 +21°C° 0 mm 2 m/s 739 mmHg 88%

23 Juin, Mercredi

Heure Température Précipitation Vent Pression Humidité
00:00 +21°C° 0 mm 2 m/s 739 mmHg 90%
01:00 +21°C° 0 mm 2 m/s 739 mmHg 91%
02:00 +20°C° 0 mm 2 m/s 739 mmHg 92%
03:00 +20°C° 0 mm 2 m/s 739 mmHg 93%
04:00 +20°C° 0 mm 2 m/s 739 mmHg 94%
05:00 +23°C° 0 mm 2 m/s 739 mmHg 88%
06:00 +24°C° 0 mm 3 m/s 739 mmHg 83%
07:00 +26°C° 0 mm 3 m/s 739 mmHg 77%
08:00 +27°C° 0.1 mm 3 m/s 739 mmHg 72%
09:00 +29°C° 0.1 mm 2 m/s 739 mmHg 66%
10:00 +30°C° 0.1 mm 2 m/s 740 mmHg 60%
11:00 +31°C° 0 mm 2 m/s 740 mmHg 57%
12:00 +32°C° 0 mm 2 m/s 740 mmHg 54%
13:00 +34°C° 0 mm 2 m/s 740 mmHg 51%
14:00 +33°C° 0 mm 3 m/s 740 mmHg 53%
15:00 +33°C° 0 mm 3 m/s 740 mmHg 55%
16:00 +32°C° 0 mm 4 m/s 740 mmHg 57%
17:00 +29°C° 0.4 mm 4 m/s 741 mmHg 64%
18:00 +27°C° 0.4 mm 4 m/s 741 mmHg 72%
19:00 +25°C° 0.4 mm 4 m/s 741 mmHg 79%
20:00 +23°C° 0.4 mm 4 m/s 742 mmHg 83%
21:00 +21°C° 0.4 mm 3 m/s 742 mmHg 88%
22:00 +20°C° 0.4 mm 2 m/s 743 mmHg 92%
23:00 +19°C° 0 mm 2 m/s 743 mmHg 93%

24 Juin, Jeudi

Heure Température Précipitation Vent Pression Humidité
00:00 +18°C° 0 mm 3 m/s 743 mmHg 94%
01:00 +18°C° 0 mm 3 m/s 743 mmHg 96%
02:00 +17°C° 0 mm 2 m/s 743 mmHg 95%
03:00 +16°C° 0 mm 2 m/s 743 mmHg 94%
04:00 +15°C° 0 mm 2 m/s 743 mmHg 94%
05:00 +16°C° 0 mm 2 m/s 743 mmHg 89%
06:00 +18°C° 0 mm 2 m/s 743 mmHg 84%
07:00 +19°C° 0 mm 2 m/s 744 mmHg 79%
08:00 +21°C° 0 mm 2 m/s 744 mmHg 74%
09:00 +23°C° 0 mm 2 m/s 744 mmHg 69%
10:00 +25°C° 0 mm 1 m/s 744 mmHg 64%
11:00 +26°C° 0 mm 2 m/s 743 mmHg 62%
12:00 +28°C° 0 mm 2 m/s 743 mmHg 61%
13:00 +29°C° 0 mm 2 m/s 743 mmHg 59%
14:00 +29°C° 0 mm 2 m/s 742 mmHg 60%
15:00 +30°C° 0 mm 3 m/s 742 mmHg 60%
16:00 +30°C° 0 mm 3 m/s 742 mmHg 61%
17:00 +29°C° 0 mm 4 m/s 741 mmHg 65%
18:00 +28°C° 0 mm 4 m/s 740 mmHg 70%
19:00 +27°C° 0 mm 5 m/s 739 mmHg 75%
20:00 +26°C° 1.2 mm 4 m/s 739 mmHg 80%
21:00 +25°C° 1.2 mm 4 m/s 739 mmHg 84%
22:00 +24°C° 1.2 mm 3 m/s 739 mmHg 89%
23:00 +22°C° 3.6 mm 3 m/s 739 mmHg 91%

25 Juin, Vendredi

Heure Température Précipitation Vent Pression Humidité
00:00 +21°C° 3.6 mm 3 m/s 739 mmHg 93%
01:00 +20°C° 3.6 mm 3 m/s 739 mmHg 94%
02:00 +20°C° 0.3 mm 3 m/s 740 mmHg 95%
03:00 +19°C° 0.3 mm 3 m/s 740 mmHg 96%
04:00 +19°C° 0.3 mm 3 m/s 740 mmHg 96%
05:00 +19°C° 0 mm 4 m/s 740 mmHg 95%
06:00 +19°C° 0 mm 4 m/s 741 mmHg 93%
07:00 +19°C° 0 mm 5 m/s 741 mmHg 92%
08:00 +19°C° 0 mm 5 m/s 741 mmHg 91%
09:00 +19°C° 0 mm 5 m/s 742 mmHg 90%
10:00 +19°C° 0 mm 6 m/s 742 mmHg 89%
11:00 +19°C° 0 mm 6 m/s 742 mmHg 85%
12:00 +20°C° 0 mm 6 m/s 743 mmHg 81%
13:00 +20°C° 0 mm 6 m/s 743 mmHg 77%
14:00 +20°C° 0 mm 5 m/s 743 mmHg 75%
15:00 +20°C° 0 mm 5 m/s 743 mmHg 73%
16:00 +21°C° 0 mm 5 m/s 743 mmHg 70%
17:00 +20°C° 0 mm 4 m/s 743 mmHg 71%
18:00 +20°C° 0 mm 4 m/s 743 mmHg 71%
19:00 +19°C° 0 mm 3 m/s 743 mmHg 72%
20:00 +19°C° 0 mm 3 m/s 743 mmHg 72%
21:00 +18°C° 0 mm 2 m/s 744 mmHg 72%
22:00 +18°C° 0 mm 2 m/s 744 mmHg 72%
23:00 +17°C° 0 mm 2 m/s 744 mmHg 77%
Voir plus

Nous avons besoin de votre consentement

Meteoprog et ses fournisseurs de services peuvent stocker et accéder à des données personnelles telles que des cookies, des identifiants d'appareils ou d'autres technologies similaires sur votre appareil et traiter ces données pour personnaliser le contenu et les publicités, ainsi que pour fournir des fonctionnalités de médias sociaux et analyser le trafic.

  • Stocker et/ou accéder à des informations sur votre appareil

    Des cookies, des identifiants d'appareils ou d'autres informations peuvent être stockés ou accessibles sur votre appareil aux fins indiquées ci-dessus.

  • Annonces et contenus personnalisés, mesure des annonces et des contenus, connaissance de l'audience et développement de produits

    Les annonces et le contenu peuvent être personnalisés en fonction d'un profil. D'autres données peuvent être ajoutées pour mieux personnaliser les annonces et le contenu. Les performances des publicités et du contenu peuvent être mesurées. Il est possible d'obtenir des informations sur le public qui a vu les publicités et le contenu. Ces données peuvent être utilisées pour développer ou améliorer l'expérience de l'utilisateur, les systèmes et les logiciels.

En cliquant sur "J'accepte", vous autorisez l'utilisation de cookies, des identifiants d'appareils, des balises web ou d'autres technologies similaires. Vos paramètres peuvent être modifiés dans le navigateur de votre appareil.

Dans certains cas, des intérêts légitimes peuvent être invoqués plutôt qu'un consentement. Vous pouvez en savoir plus à ce sujet dans notre Politique de confidentialité et de cookies.